Weather in Nikol'skoe

Russia / Vologda Oblast     59°21′13″N   37°10′37″E
temp.,
°C
wind,
m/s
gust,
m/s
humid.,
%
clouds,
%
prec.,
mm/h
press.,
hPa
HPBL,
m
14 april, wed
wed1400:00+8sse2496100 0.5 102059
03:00+8sse25910 0.7 101981
06:00+8sse31087100 0.0 1017211
09:00+13s497589 0.0 1016363
12:00+16ssw486362 0.0 1016881
15:00+16wsw58718 1.1 10161013
18:00+10nnw4792100 0.9 1018397
21:00+6n3891100 0.9 1021446
15 april, thu
thu1500:00+5nne31087100 0.0 1022517
03:00+5nne4108686 0.0 1023536
06:00+3nne3108898 0.0 1024454
09:00+5ne597694 0.0 1025637
12:00+8ne575869 0.0 10261029
15:00+9ne5757100 0.0 10261199
18:00+7ne4862100 0.0 1027989
21:00+5ne4126999 0.0 1028606
16 april, fri
fri1600:00+3ene4126965 0.0 1029503
03:00+1ene4127688 0.0 1029415
06:000ene4127961 0.0 1030402
09:00+5ene595983 0.0 1030610
12:00+9ene574516 0.0 10301005
15:00+10ene574111 0.0 10301184
18:00+9ene484911 0.0 10301019
21:00+5ne3116949 0.0 1031276
17 april, sat
sat1700:00+3ene311715 0.0 1032270
03:00+2ene310745 0.0 1032246
06:00+1ene310755 0.0 1033233
09:00+7e47535 0.0 1034506
12:00+10ene46430 0.0 10331135
15:00+12ene45400 0.0 10321378
18:00+11ene35470 0.0 1032855
21:00+5ne23680 0.0 103345
18 april, sun
sun1800:00+4ene23730 0.0 103354
03:00+2ene23770 0.0 103449
06:00+2ene23805 0.0 103451
09:00+8ene23565 0.0 1034416
12:00+11ene23425 0.0 10341481
15:00+12ene23415 0.0 10331756
18:00+12ene23497 0.0 1033590
21:00+7ne22695 0.0 103417